[[{"header":{"parameterUnit":"m.s-1","parameterCategory":2,"la1":30.2992,"la2":30.254,"lo1":-89.0895,"lo2":-89.0443,"dy":0.0025,"dx":0.0025,"nx":19,"ny":19,"refTime":"2026-04-16T03:00:00:Z","depth":"0","parameterNumber":2,"parameterNumberName":"U-component_of_CURRENTS"},"data":[0,0,0,-0.103,-0.103,-0.1077,-0.1077,-0.1273,-0.1275,0,0,0,0,0,0,0,0,0,0,0,-0.1011,-0.1011,-0.103,-0.103,-0.1077,-0.1077,-0.1273,-0.1275,0,0,0,0,0,0,0,0,0,0,0,-0.1011,-0.1011,-0.1011,-0.1031,-0.1077,-0.1077,-0.1273,-0.1208,0,0,0,0,0,0,0,0,0,0,-0.1148,-0.1102,-0.1011,-0.1011,-0.1031,-0.1077,-0.1077,-0.1204,-0.1212,-0.1285,0,-0.1273,0,-0.1276,-0.129,-0.1291,0,0,0,-0.1049,-0.1094,-0.1106,-0.1011,-0.1031,-0.1077,-0.1061,-0.1207,-0.1217,-0.1297,-0.1276,-0.1282,-0.1279,-0.1291,-0.1292,-0.1436,-0.1436,0,0,-0.1047,-0.1031,-0.1099,-0.1111,-0.1022,-0.106,-0.1062,-0.1212,-0.1218,-0.1277,-0.1287,-0.1282,-0.1293,-0.1294,-0.1436,-0.1436,0,0,0,-0.1027,-0.1029,-0.1035,-0.1104,-0.11,-0.1061,-0.1064,-0.1211,-0.1211,-0.1289,-0.1285,-0.1294,-0.1297,-0.1436,-0.1436,-0.1373,0,0,0,-0.1026,-0.1016,-0.1033,-0.1026,-0.1095,-0.1137,-0.1059,-0.1201,-0.1217,-0.1284,-0.1294,-0.1299,-0.1436,-0.1436,-0.1375,-0.1292,0,0,0,-0.1013,-0.1015,-0.1012,-0.1024,-0.1036,-0.1133,-0.1143,-0.1204,-0.1216,-0.1291,-0.1299,-0.1436,-0.1436,-0.1377,-0.1297,-0.1201,0,0,0,-0.1007,-0.0987,-0.1012,-0.1004,-0.1035,-0.1094,-0.1142,-0.1199,-0.1258,-0.1295,-0.1436,-0.1436,-0.1377,-0.13,-0.1205,-0.1249,-0.1234,0,0,-0.0978,-0.0983,-0.0983,-0.1005,-0.1026,-0.109,-0.1143,-0.1231,-0.1282,-0.1401,-0.1403,-0.1375,-0.1297,-0.1202,-0.1242,-0.1227,0,0,0,-0.0973,-0.0962,-0.098,-0.0993,-0.1052,-0.1096,-0.1196,-0.1223,-0.129,-0.1312,-0.139,-0.1342,-0.1284,-0.132,-0.1309,-0.1321,-0.1435,-0.1435,-0.1435,-0.0919,-0.0943,-0.0939,-0.098,-0.1029,-0.1118,-0.1139,-0.1197,-0.1299,-0.1295,-0.1305,-0.1202,-0.1245,-0.1236,-0.125,-0.1351,-0.1351,-0.1351,-0.1351,-0.0874,-0.0868,-0.0901,-0.0902,-0.0964,-0.102,-0.1101,-0.1138,-0.1148,-0.1243,-0.1191,-0.1271,-0.1218,-0.1239,-0.1347,-0.1347,-0.1348,-0.1348,-0.1349,-0.0843,-0.0837,-0.0834,-0.0839,-0.0853,-0.0943,-0.0942,-0.1009,-0.104,-0.1013,-0.1056,-0.1059,-0.1058,-0.1009,-0.1008,-0.1008,-0.1007,-0.1006,-0.1006,-0.0812,-0.0806,-0.0782,-0.078,-0.0776,-0.0795,-0.0848,-0.0852,-0.0891,-0.0944,-0.0945,-0.1031,-0.1096,-0.1088,-0.0994,-0.0996,-0.0998,-0.0999,-0.1,-0.0769,-0.0769,-0.0733,-0.0716,-0.07,-0.0673,-0.074,-0.0761,-0.075,-0.0745,-0.0882,-0.0905,-0.0907,-0.092,-0.0908,-0.0772,-0.0772,-0.0772,-0.0772,-0.074,-0.0738,-0.0689,-0.0658,-0.0636,-0.0625,-0.0611,-0.0695,-0.0771,-0.0812,-0.0794,-0.092,-0.0929,-0.0939,-0.0951,-0.0943,-0.0819,-0.0819,-0.0819,-0.0708,-0.0698,-0.0654,-0.0625,-0.0597,-0.0561,-0.0529,-0.0639,-0.08,-0.0819,-0.0791,-0.0789,-0.0979,-0.0991,-0.102,-0.1036,-0.1029,0,0]},{"header":{"parameterUnit":"m.s-1","parameterCategory":2,"la1":30.2992,"la2":30.254,"lo1":-89.0895,"lo2":-89.0443,"dy":0.0025,"dx":0.0025,"nx":19,"ny":19,"refTime":"2026-04-16T03:00:00:Z","depth":"0","parameterNumber":3,"parameterNumberName":"V-component_of_CURRENTS"},"data":[0,0,0,-0.0393,-0.0392,-0.0349,-0.0349,-0.031,-0.031,0,0,0,0,0,0,0,0,0,0,0,-0.0409,-0.0409,-0.0393,-0.0392,-0.0349,-0.0349,-0.031,-0.031,0,0,0,0,0,0,0,0,0,0,0,-0.0409,-0.0409,-0.0408,-0.0392,-0.0349,-0.0349,-0.031,-0.0337,0,0,0,0,0,0,0,0,0,0,-0.0376,-0.0389,-0.0409,-0.0408,-0.0392,-0.0349,-0.0349,-0.0338,-0.0335,-0.0337,0,-0.0335,0,-0.0325,-0.0308,-0.0308,0,0,0,-0.0385,-0.0392,-0.0383,-0.0408,-0.0391,-0.0349,-0.0366,-0.0336,-0.0333,-0.0333,-0.0334,-0.0332,-0.0324,-0.0308,-0.0308,-0.0288,-0.0288,0,0,-0.0387,-0.0397,-0.0385,-0.0381,-0.0387,-0.0368,-0.0365,-0.0334,-0.0333,-0.0334,-0.0331,-0.0323,-0.0308,-0.0308,-0.0288,-0.0288,0,0,0,-0.0399,-0.0398,-0.039,-0.0383,-0.0376,-0.0367,-0.0364,-0.0334,-0.0332,-0.0331,-0.0323,-0.0308,-0.0308,-0.0288,-0.0288,-0.0311,0,0,0,-0.04,-0.0406,-0.0391,-0.0395,-0.0376,-0.0352,-0.0364,-0.0334,-0.033,-0.0323,-0.0308,-0.0307,-0.0288,-0.0288,-0.0311,-0.0304,0,0,0,-0.041,-0.0406,-0.0404,-0.0396,-0.0381,-0.0352,-0.0347,-0.0333,-0.0326,-0.0308,-0.0307,-0.0288,-0.0288,-0.031,-0.0304,-0.0228,0,0,0,-0.0416,-0.0426,-0.0404,-0.0415,-0.0381,-0.0399,-0.0347,-0.0351,-0.0344,-0.0308,-0.0288,-0.0288,-0.031,-0.0304,-0.0229,-0.0393,-0.0401,0,0,-0.0436,-0.0429,-0.0437,-0.0417,-0.0435,-0.0404,-0.0419,-0.0381,-0.0336,-0.0298,-0.0297,-0.0311,-0.0304,-0.0228,-0.0386,-0.0395,0,0,0,-0.0448,-0.0451,-0.0456,-0.0456,-0.0462,-0.0455,-0.0432,-0.038,-0.0314,-0.033,-0.0302,-0.0296,-0.0247,-0.0349,-0.0356,-0.0106,-0.0287,-0.0287,-0.0287,-0.0475,-0.0475,-0.0492,-0.0497,-0.0511,-0.0492,-0.0446,-0.037,-0.0361,-0.0312,-0.031,-0.026,-0.0372,-0.0378,-0.0119,-0.0311,-0.0311,-0.0311,-0.0311,-0.0501,-0.0506,-0.0515,-0.0531,-0.0531,-0.0545,-0.0457,-0.0407,-0.028,-0.0292,-0.0243,-0.0364,-0.0387,-0.0108,-0.0313,-0.0312,-0.0312,-0.0312,-0.0312,-0.0511,-0.0513,-0.0523,-0.0547,-0.0562,-0.0564,-0.0515,-0.0424,-0.0289,-0.0242,-0.0318,-0.032,-0.0073,-0.0224,-0.0224,-0.0224,-0.0223,-0.0223,-0.0223,-0.051,-0.0521,-0.0542,-0.0565,-0.059,-0.0604,-0.0531,-0.046,-0.0386,-0.0335,-0.0336,-0.0038,-0.0231,-0.0233,-0.0218,-0.0219,-0.0219,-0.022,-0.022,-0.0507,-0.0519,-0.0552,-0.0578,-0.0634,-0.0692,-0.0632,-0.0591,-0.047,-0.0452,-0.0118,-0.0357,-0.0345,-0.0343,-0.0347,-0.0361,-0.0361,-0.0361,-0.0361,-0.0504,-0.0512,-0.0564,-0.0617,-0.0678,-0.0731,-0.0796,-0.0734,-0.0398,-0.0188,-0.0026,-0.0073,-0.0078,-0.0049,-0.0053,-0.0049,0.0014,0.0015,0.0017,-0.0501,-0.0522,-0.056,-0.062,-0.0706,-0.0796,-0.0914,-0.0791,-0.0233,0.0071,0.0373,0.0357,0.0331,0.0301,0.0372,0.0346,0.036,0,0]}],[{"header":{"parameterUnit":"m.s-1","parameterCategory":2,"la1":30.2992,"la2":30.254,"lo1":-89.0895,"lo2":-89.0443,"dy":0.0025,"dx":0.0025,"nx":19,"ny":19,"refTime":"2026-04-16T03:00:00:Z","depth":"2","parameterNumber":2,"parameterNumberName":"U-component_of_CURRENTS"},"data":[0,0,0,-0.2239,-0.2238,-0.2184,-0.2183,-0.2097,-0.2097,0,0,0,0,0,0,0,0,0,0,0,-0.2247,-0.2247,-0.2239,-0.2238,-0.2184,-0.2183,-0.2097,-0.2097,0,0,0,0,0,0,0,0,0,0,0,-0.2247,-0.2247,-0.2247,-0.2238,-0.2184,-0.2183,-0.2098,-0.2136,0,0,0,0,0,0,0,0,0,0,-0.2188,-0.2197,-0.2247,-0.2247,-0.2238,-0.2184,-0.2183,-0.2138,-0.2134,-0.2126,0,-0.2128,0,-0.2127,-0.2093,-0.2093,0,0,0,-0.2211,-0.22,-0.2205,-0.2247,-0.2238,-0.2184,-0.2201,-0.2136,-0.2131,-0.212,-0.2127,-0.2124,-0.2126,-0.2093,-0.2093,-0.2008,-0.2008,0,0,-0.2214,-0.2215,-0.2208,-0.2202,-0.2238,-0.2203,-0.2199,-0.2133,-0.2123,-0.2127,-0.2122,-0.2124,-0.2093,-0.2092,-0.2009,-0.2008,0,0,0,-0.2241,-0.2217,-0.2221,-0.2205,-0.2206,-0.2202,-0.2198,-0.2124,-0.2132,-0.2122,-0.2123,-0.2092,-0.2092,-0.2009,-0.2008,-0.1946,0,0,0,-0.2242,-0.2235,-0.2223,-0.2219,-0.2208,-0.2165,-0.2191,-0.2136,-0.2129,-0.2124,-0.2092,-0.2091,-0.201,-0.2009,-0.1948,-0.1938,0,0,0,-0.2247,-0.2235,-0.2237,-0.222,-0.2212,-0.2167,-0.2168,-0.2134,-0.2131,-0.2093,-0.2091,-0.201,-0.2009,-0.1951,-0.1942,-0.1942,0,0,0,-0.2236,-0.2248,-0.2237,-0.2249,-0.2213,-0.2187,-0.2168,-0.2127,-0.2093,-0.2092,-0.201,-0.2009,-0.1952,-0.1944,-0.1944,-0.1913,-0.1902,0,0,-0.2251,-0.225,-0.226,-0.225,-0.2229,-0.2191,-0.2129,-0.2077,-0.207,-0.2028,-0.2025,-0.1948,-0.1942,-0.1942,-0.1842,-0.1833,0,0,0,-0.2266,-0.226,-0.226,-0.2238,-0.222,-0.2139,-0.2089,-0.2056,-0.1982,-0.2051,-0.194,-0.1939,-0.1941,-0.1926,-0.1918,-0.2003,-0.2003,-0.2003,-0.2003,-0.2232,-0.2235,-0.2219,-0.2197,-0.2165,-0.2085,-0.2025,-0.1961,-0.1958,-0.1907,-0.1881,-0.1831,-0.1811,-0.1806,-0.1866,-0.1865,-0.1865,-0.1865,-0.1865,-0.2214,-0.2186,-0.2165,-0.2148,-0.2073,-0.2,-0.1916,-0.1883,-0.1812,-0.1815,-0.182,-0.1852,-0.1794,-0.186,-0.1861,-0.1861,-0.1862,-0.1862,-0.1863,-0.2159,-0.2142,-0.214,-0.2086,-0.1999,-0.1929,-0.1867,-0.1799,-0.1767,-0.1744,-0.1758,-0.1759,-0.1819,-0.1748,-0.1748,-0.1748,-0.1748,-0.1748,-0.1748,-0.2087,-0.2088,-0.2051,-0.2019,-0.1974,-0.1908,-0.1827,-0.1807,-0.1742,-0.17,-0.17,-0.1793,-0.1797,-0.1813,-0.1747,-0.1747,-0.1747,-0.1747,-0.1747,-0.198,-0.2002,-0.196,-0.1934,-0.189,-0.1829,-0.1826,-0.1759,-0.1751,-0.1717,-0.1684,-0.1686,-0.1715,-0.1721,-0.1736,-0.1654,-0.1654,-0.1654,-0.1654,-0.1889,-0.1908,-0.1833,-0.1811,-0.1812,-0.1781,-0.1694,-0.1573,-0.1522,-0.1409,-0.1419,-0.1404,-0.1415,-0.1427,-0.144,-0.145,-0.1293,-0.1292,-0.1291,-0.1781,-0.1796,-0.1704,-0.173,-0.1752,-0.172,-0.1528,-0.1276,-0.112,-0.1269,-0.1281,-0.1644,-0.1653,-0.1657,-0.1705,-0.1714,-0.1741,0,0]},{"header":{"parameterUnit":"m.s-1","parameterCategory":2,"la1":30.2992,"la2":30.254,"lo1":-89.0895,"lo2":-89.0443,"dy":0.0025,"dx":0.0025,"nx":19,"ny":19,"refTime":"2026-04-16T03:00:00:Z","depth":"2","parameterNumber":3,"parameterNumberName":"V-component_of_CURRENTS"},"data":[0,0,0,-0.0289,-0.0289,-0.0281,-0.0281,-0.0267,-0.0267,0,0,0,0,0,0,0,0,0,0,0,-0.0305,-0.0305,-0.0289,-0.0289,-0.0281,-0.0281,-0.0267,-0.0267,0,0,0,0,0,0,0,0,0,0,0,-0.0304,-0.0305,-0.0305,-0.0289,-0.0281,-0.0281,-0.0267,-0.0275,0,0,0,0,0,0,0,0,0,0,-0.0283,-0.0302,-0.0305,-0.0305,-0.0289,-0.0281,-0.0281,-0.0275,-0.0274,-0.0269,0,-0.0277,0,-0.0265,-0.0266,-0.0266,0,0,0,-0.0291,-0.0303,-0.0293,-0.0305,-0.0289,-0.0281,-0.0285,-0.0275,-0.0274,-0.0268,-0.0277,-0.0276,-0.0265,-0.0266,-0.0266,-0.031,-0.0311,0,0,-0.0291,-0.0307,-0.0294,-0.0293,-0.0298,-0.0285,-0.0285,-0.0274,-0.0282,-0.0277,-0.0276,-0.0265,-0.0266,-0.0266,-0.031,-0.031,0,0,0,-0.0291,-0.0308,-0.0299,-0.0294,-0.0289,-0.0285,-0.0284,-0.0283,-0.0279,-0.0275,-0.0265,-0.0266,-0.0266,-0.0309,-0.031,-0.04,0,0,0,-0.0291,-0.0307,-0.0299,-0.0309,-0.029,-0.0287,-0.0294,-0.028,-0.0278,-0.0265,-0.0266,-0.0265,-0.0308,-0.031,-0.0396,-0.0436,0,0,0,-0.0303,-0.0308,-0.0309,-0.031,-0.0303,-0.0287,-0.0282,-0.0279,-0.0271,-0.0266,-0.0265,-0.0308,-0.0309,-0.0393,-0.0429,-0.0396,0,0,0,-0.0316,-0.0332,-0.031,-0.0332,-0.0303,-0.0326,-0.0282,-0.0302,-0.0306,-0.0266,-0.0308,-0.031,-0.0392,-0.0426,-0.0394,-0.0217,-0.0214,0,0,-0.0342,-0.0336,-0.0349,-0.0328,-0.0364,-0.0326,-0.0376,-0.0361,-0.0324,-0.031,-0.0311,-0.0398,-0.0429,-0.0396,-0.0302,-0.0296,0,0,0,-0.036,-0.0379,-0.0385,-0.0401,-0.0399,-0.0428,-0.0408,-0.0398,-0.0401,-0.0331,-0.0402,-0.0419,-0.0394,-0.0284,-0.028,-0.0317,-0.0317,-0.0317,-0.0316,-0.043,-0.0427,-0.0466,-0.0475,-0.0495,-0.0505,-0.0518,-0.0503,-0.0463,-0.0482,-0.0496,-0.054,-0.0426,-0.042,-0.0499,-0.05,-0.05,-0.05,-0.05,-0.0493,-0.0521,-0.0536,-0.0573,-0.0596,-0.0639,-0.0634,-0.0617,-0.0604,-0.0579,-0.055,-0.039,-0.0421,-0.0508,-0.0506,-0.0505,-0.0505,-0.0504,-0.0504,-0.0545,-0.0559,-0.0581,-0.0639,-0.0703,-0.0723,-0.0752,-0.0746,-0.0679,-0.0683,-0.0489,-0.0484,-0.0559,-0.065,-0.065,-0.065,-0.065,-0.065,-0.065,-0.0586,-0.0607,-0.0656,-0.0709,-0.0753,-0.0806,-0.0823,-0.0782,-0.0652,-0.0566,-0.0563,-0.0589,-0.0584,-0.0566,-0.0652,-0.0651,-0.0651,-0.0651,-0.0651,-0.0648,-0.065,-0.0718,-0.0761,-0.084,-0.0836,-0.0824,-0.0644,-0.0594,-0.0465,-0.0459,-0.0464,-0.0399,-0.0399,-0.0375,-0.0406,-0.0406,-0.0406,-0.0406,-0.0685,-0.0692,-0.078,-0.084,-0.0889,-0.086,-0.0666,-0.0386,-0.023,-0.0111,-0.0124,-0.0062,-0.0077,0.0009,-0.0001,0.0033,0.0108,0.0109,0.0109,-0.0726,-0.0746,-0.0813,-0.0865,-0.0914,-0.0842,-0.0551,-0.0122,0.0151,0.0127,-0.0062,-0.0366,-0.0307,-0.032,-0.0212,-0.0218,-0.0173,0,0]}],[{"header":{"parameterUnit":"m.s-1","parameterCategory":2,"la1":30.2992,"la2":30.254,"lo1":-89.0895,"lo2":-89.0443,"dy":0.0025,"dx":0.0025,"nx":19,"ny":19,"refTime":"2026-04-16T03:00:00:Z","depth":"4","parameterNumber":2,"parameterNumberName":"U-component_of_CURRENTS"},"data":[0,0,0,-0.0965,-0.0966,-0.104,-0.1041,-0.1117,-0.1117,0,0,0,0,0,0,0,0,0,0,0,-0.0945,-0.0946,-0.0964,-0.0966,-0.104,-0.1041,-0.1117,-0.1117,0,0,0,0,0,0,0,0,0,0,0,-0.0945,-0.0946,-0.0946,-0.0966,-0.104,-0.1041,-0.1116,-0.1066,0,0,0,0,0,0,0,0,0,0,-0.0997,-0.0977,-0.0945,-0.0946,-0.0967,-0.104,-0.1041,-0.1064,-0.1069,-0.1076,0,-0.1092,0,-0.1102,-0.1121,-0.1122,0,0,0,-0.0971,-0.0972,-0.0994,-0.0946,-0.0967,-0.104,-0.1008,-0.1067,-0.1073,-0.1083,-0.1093,-0.1096,-0.1103,-0.1122,-0.1122,-0.1204,-0.1205,0,0,-0.0967,-0.0957,-0.099,-0.0998,-0.0992,-0.1006,-0.101,-0.1071,-0.1078,-0.1094,-0.1098,-0.1104,-0.1122,-0.1123,-0.1204,-0.1204,0,0,0,-0.0952,-0.0954,-0.0974,-0.0995,-0.1007,-0.1008,-0.1013,-0.1076,-0.1083,-0.1099,-0.1105,-0.1123,-0.1123,-0.1203,-0.1204,-0.1213,0,0,0,-0.095,-0.0945,-0.0973,-0.0967,-0.1006,-0.1044,-0.1016,-0.1079,-0.1086,-0.1105,-0.1123,-0.1124,-0.1203,-0.1204,-0.1212,-0.1268,0,0,0,-0.0941,-0.0943,-0.0954,-0.0966,-0.0996,-0.1043,-0.1055,-0.1081,-0.109,-0.1122,-0.1124,-0.1203,-0.1204,-0.1211,-0.1265,-0.1214,0,0,0,-0.0924,-0.0934,-0.0954,-0.0975,-0.0995,-0.1054,-0.1054,-0.1098,-0.1128,-0.1123,-0.1203,-0.1204,-0.1211,-0.1262,-0.1214,-0.107,0,0,0,-0.0922,-0.0933,-0.0946,-0.0966,-0.1013,-0.1043,-0.11,-0.1133,-0.1145,-0.1181,-0.1184,-0.1213,-0.1264,-0.1214,-0.1132,0,0,0,0,-0.0936,-0.095,-0.0968,-0.1004,-0.1049,-0.1108,-0.1143,-0.1161,-0.1201,-0.1166,-0.1231,-0.1265,-0.1231,-0.1146,-0.1209,-0.1209,-0.1209,-0.1209,-0.1208,-0.0928,-0.0956,-0.0986,-0.1035,-0.1083,-0.1155,-0.1197,-0.1233,-0.1229,-0.125,-0.1283,-0.1279,-0.1192,-0.1269,-0.1269,-0.1269,-0.1269,-0.1269,-0.1269,-0.0924,-0.0931,-0.1,-0.1038,-0.1115,-0.1177,-0.1262,-0.1274,-0.1316,-0.1324,-0.1287,-0.118,-0.127,-0.127,-0.127,-0.127,-0.127,-0.1269,-0.1269,-0.0892,-0.0896,-0.0943,-0.101,-0.1105,-0.1198,-0.125,-0.1329,-0.1345,-0.1352,-0.1204,-0.1286,-0.1268,-0.1299,-0.1299,-0.1299,-0.1299,-0.1299,-0.1299,-0.0822,-0.0868,-0.0891,-0.0987,-0.1032,-0.113,-0.1263,-0.1273,-0.1315,-0.1244,-0.1353,-0.1289,-0.1288,-0.1271,-0.13,-0.13,-0.13,-0.13,-0.13,-0.0751,-0.0779,-0.0787,-0.0827,-0.0939,-0.1006,-0.1152,-0.1165,-0.1145,-0.1096,-0.1146,-0.1153,-0.1133,-0.1136,-0.1113,-0.1096,-0.1094,-0.1093,0,-0.0685,-0.0708,-0.0681,-0.0707,-0.0765,-0.092,-0.0905,-0.0958,-0.0996,-0.097,-0.1105,-0.116,-0.1165,-0.1142,-0.1142,-0.1113,0,0,0,-0.0633,-0.0624,-0.057,-0.0609,-0.0673,-0.0783,-0.0901,-0.0877,-0.1016,-0.0968,-0.1049,-0.106,-0.119,-0.1301,-0.1289,-0.1288,-0.126,0,0]},{"header":{"parameterUnit":"m.s-1","parameterCategory":2,"la1":30.2992,"la2":30.254,"lo1":-89.0895,"lo2":-89.0443,"dy":0.0025,"dx":0.0025,"nx":19,"ny":19,"refTime":"2026-04-16T03:00:00:Z","depth":"4","parameterNumber":3,"parameterNumberName":"V-component_of_CURRENTS"},"data":[0,0,0,-0.0018,-0.0018,0.0006,0.0006,0.0063,0.0064,0,0,0,0,0,0,0,0,0,0,0,-0.0022,-0.0022,-0.0018,-0.0018,0.0006,0.0006,0.0063,0.0064,0,0,0,0,0,0,0,0,0,0,0,-0.0022,-0.0022,-0.0022,-0.0018,0.0006,0.0006,0.0063,0.0042,0,0,0,0,0,0,0,0,0,0,0.0017,0.0006,-0.0022,-0.0022,-0.0018,0.0006,0.0006,0.0041,0.0043,0.0056,0,0.0053,0,0.0052,0.0067,0.0067,0,0,0,-0.0005,0.0004,0.0005,-0.0022,-0.0018,0.0005,-0.0001,0.0042,0.0045,0.0059,0.0054,0.0055,0.0053,0.0067,0.0067,0.0082,0.0082,0,0,-0.0006,-0.0009,0.0003,0.0006,-0.002,-0.0002,-0.0001,0.0043,0.0047,0.0054,0.0057,0.0054,0.0068,0.0068,0.0082,0.0082,0,0,0,-0.0019,-0.001,-0.001,0.0004,0.0002,-0.0002,-0.0,0.0045,0.0043,0.0057,0.0055,0.0068,0.0068,0.0083,0.0082,0.0033,0,0,0,-0.0019,-0.0019,-0.0011,-0.0012,0.0001,0.002,0.0001,0.004,0.0045,0.0054,0.0068,0.0069,0.0083,0.0082,0.0035,0.0006,0,0,0,-0.0022,-0.0019,-0.002,-0.0012,-0.0009,0.0019,0.0021,0.0041,0.0043,0.0067,0.0069,0.0083,0.0082,0.0037,0.0009,0.0017,0,0,0,-0.002,-0.0039,-0.002,-0.0044,-0.001,-0.0017,0.0021,0.0027,0.0043,0.0068,0.0083,0.0082,0.0037,0.0011,0.0018,0.0078,0,0,0,-0.0048,-0.0042,-0.0059,-0.0043,-0.0069,-0.0019,-0.0029,0.001,0.0042,0.0073,0.0074,0.0035,0.001,0.0017,0.005,0,0,0,0,-0.0071,-0.0085,-0.0088,-0.0099,-0.0089,-0.0074,-0.0033,-0.0009,0.002,0.0047,0.0039,0.0024,0.0031,0.007,0.008,0.008,0.008,0.008,0.008,-0.0107,-0.0115,-0.0147,-0.0151,-0.0147,-0.011,-0.0094,-0.0052,-0.0011,-0.0006,-0.0012,-0.0037,0.0002,-0.0003,-0.0003,-0.0004,-0.0004,-0.0004,-0.0004,-0.0163,-0.019,-0.0192,-0.0225,-0.0205,-0.0201,-0.0149,-0.0116,-0.008,-0.0049,-0.0039,0.0019,-0.0009,-0.0008,-0.0007,-0.0007,-0.0006,-0.0006,-0.0006,-0.019,-0.0208,-0.0227,-0.0274,-0.0287,-0.0256,-0.0246,-0.02,-0.0131,-0.013,-0.0048,-0.0062,-0.0059,-0.0107,-0.0107,-0.0107,-0.0107,-0.0107,-0.0107,-0.0211,-0.0235,-0.0288,-0.0326,-0.0351,-0.0352,-0.03,-0.025,-0.0177,-0.01,-0.0132,-0.0071,-0.0068,-0.0064,-0.0109,-0.0109,-0.0109,-0.0108,-0.0108,-0.0257,-0.0268,-0.034,-0.0379,-0.0435,-0.0425,-0.038,-0.0224,-0.0169,-0.0082,-0.007,-0.0071,-0.0042,-0.004,-0.0034,-0.0071,-0.0071,-0.007,0,-0.0283,-0.0298,-0.039,-0.0454,-0.0488,-0.0466,-0.0347,-0.0255,-0.0145,-0.0148,-0.0197,-0.0194,-0.0191,-0.0169,-0.0164,-0.0164,0,0,0,-0.032,-0.0336,-0.0403,-0.0469,-0.0509,-0.0385,-0.0311,-0.0243,-0.017,-0.0042,-0.0055,-0.0059,-0.0096,-0.0114,-0.0073,-0.0068,-0.006,0,0]}]]